Wind_Speed
16 14 14 12 12 14 15 15 14 14 11 10 10 10 10 10 10 10 8 7 6 5 5 6 6 6 6 6 5 4 5 5 4 5 5 5 4 5 5 6 6 6
15 13 15 13 13 17 18 16 15 13 10 10 10 10 11 11 10 9 8 7 6 5 6 7 7 7 7 7 6 5 5 5 4 5 6 5 5 5 5 6 6 6
16 15 15 14 15 19 19 16 13 12 11 10 10 10 10 10 10 9 8 7 6 6 7 7 8 7 7 7 7 6 6 6 6 6 6 6 5 5 5 6 6 6
15 15 15 15 16 19 20 17 12 11 11 10 10 10 10 10 10 10 9 8 7 6 7 7 7 7 8 8 7 7 7 7 7 6 6 5 4 5 6 6 6 6
15 15 15 15 16 17 18 16 12 11 11 11 11 10 10 11 11 11 10 9 7 7 7 7 7 7 8 8 7 7 7 7 7 6 5 5 4 5 6 6 7 7
16 15 15 15 16 16 16 15 13 12 11 11 11 10 10 12 12 12 11 9 8 7 7 7 7 8 8 8 7 7 7 7 7 6 6 6 5 6 6 7 8 8
16 17 16 15 17 18 17 15 14 13 12 11 11 10 11 12 13 13 11 10 8 7 7 7 8 9 9 8 8 7 7 8 7 7 7 7 7 7 8 7 8 8
17 17 17 17 18 18 16 15 14 13 12 12 11 11 12 13 13 13 11 10 8 8 8 9 9 10 9 8 8 8 8 8 7 7 8 7 7 8 8 7 7 7
16 16 17 18 18 17 16 15 14 13 12 12 11 11 12 13 13 12 11 10 9 9 10 10 11 11 10 9 9 9 9 8 7 8 8 8 8 8 8 7 7 7
15 14 15 17 16 15 15 15 14 13 12 12 12 11 12 12 12 12 12 11 10 11 11 11 11 11 10 10 10 10 10 9 8 8 8 8 8 7 7 7 7 7
12 12 13 15 15 14 15 15 14 13 12 12 12 11 12 12 12 13 12 11 11 12 13 12 12 12 11 11 11 10 10 9 8 8 7 7 7 6 6 6 6 6
8 9 10 11 11 11 14 15 13 13 12 11 12 11 12 12 12 12 12 11 11 12 13 13 12 12 11 12 11 10 10 9 8 8 7 6 6 5 5 5 5 5
9 9 10 13 12 10 12 14 13 12 12 11 12 12 12 12 12 12 11 11 11 12 13 13 12 11 11 11 11 10 9 9 9 8 7 7 6 5 5 4 4 4
10 9 11 14 14 12 12 13 12 12 11 10 11 12 11 12 12 13 11 10 11 11 11 11 11 11 10 10 10 9 9 9 9 9 8 8 7 6 5 4 4 3
11 10 10 12 11 10 11 11 10 10 10 10 11 10 10 11 12 13 12 10 11 11 10 10 10 9 10 10 9 8 8 8 8 8 8 8 8 7 6 5 4 3
10 9 10 11 10 9 8 7 7 9 10 9 10 9 8 9 11 12 11 10 11 11 10 9 8 8 10 10 8 7 7 6 7 7 7 7 7 7 6 6 5 4
13 11 11 11 12 12 12 10 8 8 9 8 8 8 7 8 9 10 10 10 10 10 10 8 8 9 10 9 8 8 7 6 6 7 6 6 6 6 6 6 6 6
14 13 13 12 13 13 13 11 9 7 6 5 4 5 6 7 8 9 9 9 9 9 9 8 8 9 8 7 7 8 7 7 6 7 7 7 7 7 7 6 6 7
13 12 12 11 11 10 11 11 7 5 5 4 3 4 4 5 6 7 7 7 8 8 8 8 7 8 7 7 7 7 8 8 7 7 7 8 8 8 9 8 8 8
13 12 12 11 10 10 12 12 8 4 3 4 4 4 4 4 5 5 5 5 6 6 6 6 6 6 6 6 6 7 9 10 9 9 8 9 10 11 11 11 10 9
13 13 12 11 11 11 10 8 6 5 5 5 5 5 4 4 4 4 4 4 4 4 4 4 5 5 5 5 5 6 7 9 11 11 10 11 12 14 16 14 11 10
12 12 11 11 11 11 9 8 6 6 6 6 6 6 5 5 4 4 4 4 4 3 3 3 3 4 4 4 5 5 6 8 10 12 12 12 13 15 16 14 12 11
13 12 12 11 11 11 10 9 8 7 6 6 6 6 5 5 4 3 3 3 3 2 2 3 2 3 4 4 5 5 6 7 8 9 10 12 13 13 13 12 12 12
14 14 14 13 13 12 11 10 9 8 7 6 6 6 6 4 3 3 2 2 2 1 2 3 2 3 4 4 5 6 7 7 6 7 9 10 11 12 12 11 11 15
16 16 15 15 14 13 13 11 10 9 8 7 7 7 6 5 4 3 3 3 2 1 2 3 1 3 4 4 6 6 7 6 5 6 8 9 9 9 10 9 10 13
16 16 15 15 14 13 13 11 10 10 9 8 7 6 6 6 5 4 4 4 3 2 1 2 1 3 3 3 4 5 6 4 4 6 8 8 9 9 9 9 9 8
Wind_Direction
176 178 185 183 179 177 172 164 158 157 158 161 165 166 164 162 159 161 158 151 150 142 138 141 142 143 141 138 132 124 128 132 136 136 134 140 143 150 166 171 171 170
174 183 192 189 184 183 178 166 158 159 162 164 165 162 160 159 157 158 156 152 150 143 143 141 136 135 133 130 121 111 114 114 118 133 138 138 138 141 152 158 160 159
172 182 193 195 192 188 179 166 160 163 163 161 160 156 158 160 159 160 159 157 156 149 147 143 137 136 133 129 124 117 117 113 115 125 131 135 135 136 142 149 154 156
175 180 189 193 191 186 178 170 164 165 163 161 160 158 160 165 164 163 162 161 159 155 153 149 143 138 134 133 131 126 122 118 117 118 122 128 130 135 142 146 152 157
175 178 183 185 182 180 179 177 173 170 167 164 165 167 168 168 167 164 163 163 163 163 161 156 151 146 141 138 135 132 129 124 119 116 116 120 124 137 146 149 153 154
175 177 179 178 177 180 182 181 177 172 170 168 170 173 171 168 166 164 165 166 167 168 168 162 157 154 150 145 138 135 134 129 125 123 119 119 125 131 137 143 148 147
175 176 176 174 179 184 183 179 175 172 171 171 170 170 169 167 165 164 166 168 169 170 169 165 159 155 152 149 142 137 135 133 131 128 121 119 126 128 126 129 133 135
177 176 176 177 180 183 180 175 174 172 170 169 167 166 167 167 166 165 166 166 166 166 163 160 156 152 150 147 144 141 139 137 133 129 119 115 124 130 127 125 124 124
179 177 178 180 180 179 176 174 174 171 169 167 165 165 168 170 170 168 167 165 163 161 158 155 152 150 148 146 144 144 144 141 134 129 122 119 123 128 129 130 130 129
177 173 174 177 178 178 176 175 173 170 169 168 167 166 169 173 173 172 170 165 162 160 156 154 152 150 147 142 141 143 143 141 137 132 130 127 123 122 125 129 133 139
168 165 171 174 175 177 177 177 175 170 168 169 169 169 169 171 175 176 174 168 165 162 158 156 155 152 147 142 140 139 138 139 138 135 133 129 126 123 123 125 130 138
153 155 163 163 162 169 176 180 179 174 171 171 172 171 169 172 175 176 176 173 168 164 161 159 157 154 150 144 141 139 137 136 135 135 134 133 134 135 135 139 142 143
141 149 161 160 155 157 170 178 180 179 177 174 174 173 171 173 176 177 178 175 170 167 164 160 159 158 154 150 147 144 142 142 142 143 141 139 140 140 140 149 160 165
149 164 175 173 166 163 172 177 179 180 180 177 175 174 174 176 177 176 176 174 172 170 166 162 161 162 159 157 155 152 151 152 154 155 154 152 151 147 143 148 156 168
163 169 175 177 167 158 165 171 174 176 177 178 177 176 177 180 178 177 176 174 172 170 167 164 163 165 167 164 160 160 164 166 166 167 164 163 162 158 158 161 161 170
145 141 155 166 154 136 135 143 161 174 176 178 178 175 177 179 178 177 175 174 172 168 167 167 170 178 179 175 173 173 178 183 182 181 176 172 174 172 170 175 181 196
132 129 133 140 138 129 123 118 124 155 170 174 176 173 172 174 174 174 174 176 175 171 169 172 183 192 189 188 192 194 198 204 202 197 194 191 194 192 186 188 196 206
133 134 131 133 133 127 125 121 105 105 128 142 161 169 168 171 173 172 172 175 176 176 174 176 189 199 199 199 203 204 209 216 215 212 212 212 214 214 211 213 213 212
127 132 136 141 141 135 139 145 131 94 91 104 125 148 152 161 168 174 180 181 183 185 179 177 192 206 210 212 215 218 223 224 224 225 225 227 230 230 229 229 228 227
119 124 132 137 141 146 154 160 162 158 136 129 134 137 134 138 150 168 185 187 190 196 189 183 197 207 210 214 220 227 232 233 233 234 235 238 242 246 247 243 237 238
111 118 127 131 134 140 149 155 155 158 157 145 138 142 149 151 149 158 175 180 183 190 184 187 206 210 206 211 218 225 233 236 239 242 243 244 247 250 253 252 246 243
104 111 114 120 125 127 131 135 133 139 148 141 132 137 149 158 156 151 160 172 176 175 173 187 214 219 214 223 227 228 231 233 239 246 247 246 247 248 250 250 247 244
90 95 92 96 105 107 112 123 124 123 131 135 135 137 137 141 145 136 132 137 138 152 173 186 209 219 222 236 242 241 241 236 237 245 247 246 246 245 245 246 244 241
77 83 84 88 93 95 100 108 111 112 123 136 139 138 133 135 147 143 131 112 83 81 158 163 207 239 237 246 253 252 251 246 240 246 250 250 250 247 245 245 243 247
68 74 77 81 85 89 92 95 97 102 110 118 122 123 120 121 129 125 125 125 102 73 127 118 173 253 243 244 251 251 251 249 251 258 259 259 261 258 252 250 249 257
61 63 65 68 74 79 83 86 88 91 93 97 105 112 113 114 115 110 105 98 76 58 76 80 3 280 286 285 273 268 265 259 256 267 271 273 273 269 265 261 256 258
Height
812 813 816 817 818 820 821 822 824 825 827 829 830 831 832 834 835 836 837 838 839 840 841 842 842 842 843 843 844 844 845 845 846 846 847 847 848 848 849 850 850 851
812 814 816 818 818 820 822 823 824 826 828 829 830 831 833 834 835 836 837 839 839 840 841 842 842 842 843 843 844 844 845 845 846 846 847 848 848 849 849 850 851 851
812 813 815 817 818 820 822 823 825 827 828 830 831 832 833 834 835 836 838 839 840 841 841 842 842 843 843 843 844 845 845 846 846 847 847 848 849 849 850 850 851 852
810 812 814 816 818 820 822 823 825 827 828 830 831 832 833 834 835 836 838 839 840 841 841 842 842 843 844 844 844 845 845 846 847 847 848 848 849 849 850 851 851 852
809 812 814 816 818 820 822 823 825 827 829 830 831 832 833 834 835 836 838 839 840 841 841 842 843 843 844 844 845 845 846 846 847 848 848 849 849 849 850 851 851 852
809 811 813 816 818 820 822 823 825 827 828 830 831 833 833 834 835 836 838 839 840 841 841 842 843 843 844 845 846 846 846 847 847 848 848 849 849 850 850 851 852 853
808 810 813 815 817 820 821 823 825 827 829 830 831 833 833 834 835 836 838 839 840 841 841 842 843 843 845 845 846 847 847 847 848 848 848 849 850 850 851 851 852 853
808 810 812 815 817 819 821 823 825 827 829 830 831 833 834 835 836 836 838 839 840 841 841 842 843 843 845 845 846 847 848 848 848 849 849 850 850 851 851 852 853 853
808 810 812 814 817 819 821 823 825 827 829 830 831 833 834 835 836 837 838 838 840 841 841 842 843 844 845 845 846 847 848 849 849 849 850 850 851 851 852 853 853 854
808 810 812 815 817 820 821 823 825 827 829 830 832 833 834 835 836 837 838 838 839 840 841 842 843 844 845 845 846 847 848 849 849 850 850 850 851 852 852 853 854 855
809 811 813 815 818 820 822 824 825 827 829 830 832 833 834 835 836 837 838 838 839 839 840 842 843 844 845 845 846 847 848 849 849 850 851 851 852 852 853 854 854 855
811 813 815 816 818 820 822 824 826 827 829 830 832 833 834 835 836 837 838 838 839 839 840 841 842 844 844 845 846 847 848 849 850 850 851 852 852 853 853 854 854 855
812 814 815 816 817 819 821 824 826 828 829 830 831 832 833 834 836 837 838 838 839 840 840 841 842 843 844 845 846 847 848 849 850 851 851 852 852 853 854 854 855 855
812 814 815 816 817 818 821 823 826 828 829 830 831 832 833 834 835 836 837 838 839 840 841 841 842 843 844 845 846 847 848 849 850 850 851 852 852 853 854 854 855 855
812 814 815 817 818 819 821 824 826 828 829 830 831 832 833 833 834 836 837 838 839 840 841 842 843 844 844 845 846 846 848 849 849 850 851 851 852 852 853 854 855 855
812 814 816 817 819 820 822 824 826 828 829 830 831 832 833 833 834 835 836 837 839 840 841 842 843 844 844 845 845 846 847 848 849 850 850 851 851 852 853 853 854 855
813 815 816 818 819 820 822 824 826 828 829 830 831 832 833 833 834 835 836 837 838 839 841 842 843 844 844 845 846 846 847 848 849 850 850 851 851 852 852 852 853 854
814 815 816 818 819 820 822 825 826 827 829 831 831 832 833 833 834 835 836 837 838 839 840 841 842 843 844 845 846 846 847 848 849 849 850 850 851 851 852 852 852 853
814 815 817 819 820 821 823 826 827 828 829 830 832 833 833 834 835 836 837 838 838 839 840 841 842 843 844 845 845 846 847 847 848 849 849 849 850 850 850 850 851 852
814 816 817 819 821 822 824 826 827 828 829 830 831 833 834 835 835 836 837 838 839 839 840 841 841 842 843 844 844 845 846 846 847 848 848 848 849 849 849 849 849 850
816 817 818 819 821 823 825 826 827 828 829 830 831 832 834 835 836 837 838 838 839 839 840 840 841 842 842 843 843 844 845 845 846 846 847 847 847 847 848 848 847 848
818 819 819 820 822 823 825 826 828 829 829 830 831 832 834 835 836 837 838 838 838 839 839 840 840 841 841 842 842 843 843 844 845 845 845 846 845 846 846 846 846 846
820 820 821 822 823 824 825 826 828 829 830 831 831 833 834 836 837 837 838 838 838 838 839 840 840 840 840 840 841 842 842 843 843 844 844 844 844 844 844 844 844 844
823 823 823 824 826 826 827 827 828 829 831 832 832 833 835 836 836 837 837 838 838 838 838 839 839 839 839 840 840 840 841 841 842 843 843 842 842 842 842 842 842 842
825 826 826 827 827 828 828 829 829 830 831 832 833 833 834 835 836 836 837 837 838 838 838 838 839 838 838 839 839 840 840 840 841 842 841 841 841 840 840 840 840 840
827 828 828 828 829 829 829 830 830 831 831 832 832 833 834 835 835 835 836 836 836 836 836 837 838 838 838 838 838 838 839 839 840 841 840 840 840 839 839 839 839 839